Location: Aiyede
(8.4833°N, 4.4500°E)
Time: 17:32:38
(UTC+00:00)

N. Korean satellite - Pass Details

Date: 29 November 2020
Orbit: 453 x 502 km, 97.2° (Epoch: 15 January)

Event Time Altitude Azimuth Distance (km) Brightness Sun altitude
Rises 05:10:47 0° 360° (N) 2,565 10.0 -7.7°
Reaches altitude 10° 05:12:55 10° 352° (N) 1,689 9.0 -7.2°
Maximum altitude 05:16:21 41° 282° (WNW) 738 7.0 -6.4°
Drops below altitude 10° 05:19:50 10° 211° (SSW) 1,703 9.2 -5.6°
Sets 05:22:00 0° 203° (SSW) 2,589 10.2 -5.1°
